ARIANE 2 R/B, 19773

Orbit data source: Space-Track

ARIANE 2 R/B, 19773 is space debris in HEO originally from a launch on Fri, 27 Jan 1989 UTC launched from the French Guiana (FRGUI). Debris objects in space refer to the collection of defunct objects orbiting the Earth. Examples of debris include non-operational satellites, rocket bodies, and fragments generated from explosions, collisions, or faulty payload assembly.

Loading next visibility...
Identifier
19773, 1989-006B
Orbit
HEO
Country
Flag of FRFR
Related business
Manufacturer
Ae/LesM
Mission
Spacecraft
Bus & Motor
ARIANE H10, Unknown motor
Mass
1,820 kg wet, 1,820 kg dry
Launch date (UTC)
1989-01-27 (37 years ago)
Launch vehicle
Unknown
Launch site
French Guiana (FRGUI)
Object type
Payload
Rocket body
Debris
Shape & HBR
Cyl, 5.9 m
Radar Cross Section
26.751 m², Large (>1 m²)

Expand to show TLE details & history
Last TLE update: 1 day ago

TLE from 1 day ago
0 ARIANE 2 R/B
1 19773U 89006B   25349.53602730  .00000007  00000-0  99142-3 0  9994
2 19773   7.9920 121.2587 7176897 344.9508   1.6001  2.29210146306453
Epoch: 2025-12-15T12:51Z
TLE epoch observation values (Epoch: 2025-12-15T12:51:52.758Z)
Latitude
-0.00056°
Longitude
-156.15475°
Altitude
567.819 km
Speed
9.917 km/s
True Right ascension
08h 04m 59s
True Declination
0° 00' 02"
Sunlit
Object was in full shadow at epoch
Visualization orbit readout
Latitude
Unknown
Longitude
Unknown
Altitude
Unknown
Speed
Unknown
Apparent Right ascension
Unknown
Apparent Declination
Unknown
Sunlit
N/A
Visualization observer readout
Local Sidereal Time
11:15:19
Azimuth
Unknown
Elevation
Unknown
Doppler factor
Unknown
Orbital elements
Apogee altitude
35,368.108 km
Perigee altitude
483.053 km
Semi-major axis
24,303.717 km
Eccentricity
0.71769
Inclination
7.992°
RAAN
121.2587°
Arg. of periapsis
344.9508°
True anomaly
13.86667°
Mean anomaly
1.6001°
Eccentric anomaly
5.64468°
Mean motion
0.57284 °/min
Orbital period
628.45 mins
BSTAR
0.00099142
Loading maneuver chart data...
Computing Atmospheric mass density...
Loading historical data...
Loading historical data...
Loading historical data...
Loading historical data...
Loading historical data...
Loading historical data...
Loading historical data...

Documentation

Showing up to 5 results
|